"Pseudo-MPEC" for P10OQt4

Created 2019 Jun 15 19:08:32 UT using Find_Orb

Click here for an explanation of pseudo-MPECs

 
 Astrometry: 
     P10OQt4  C2019 05 22\M)9;StDSO_Vu1'-Y4Fd)MRgv/9Tlf]_[kYxbe$?:iEAj,X,;Yp(F51
     P10OQt4  C2019 05 22VAdLbH1CmDIk,4p%N_JI)0$;BVvm9,sZpyBrdfAstrometrye.iWF51
     P10OQt4  C2019 05 22nX'N,@x0J/he%dvUW5a*I2)l^m2JUU[J3bRredacted;t(P*,9LLF51
     P10OQt4  C2019 05 22s6NH7jR`V\,:)r_Nyca;;[xE?^9kd2\f:*W*6`L$UVQso%MX@BsVF51
     P10OQt4  C2019 06 08@ruY1ACwW08agBQ_]$l4o?)Nl;n5hJ/`clickBrAfIRvam=^DWuuF51
     P10OQt4  C2019 06 08gjD,sry4@hVEQ=ytit:8Lj?-8c3@907,^/_L*')O3F(a5!'Nk[mRF51
     P10OQt4  C2019 06 08sVq,Pd`aGEe`qIBRUZpi\qq0R#H4sfd^MK:NJY4B)Vv[ew[@x,7cF51
     P10OQt4  C2019 06 09HDfK$Dj?(qDvEoV47_Dg@06E_iRPRTtr%RMJCl,n6)n+_(vDL6\/F51
     P10OQt4  C2019 06 096AxhL*vFyOvA2j2o^=T@nRG2K]HZsD2;pplprHhereoNEw:6/0N'F51
     P10OQt4  C2019 06 09oOqavSc0'-Bv#lhtd6C@iYY'ia.a0]XLxTZaIfor:7',!Kpxk5A/F51
     P10OQt4  C2019 06 09nT77yxL71Si?3+^NUx?\+E7Vpi!+1eSeVj[UB.l-;\M(AeVvcO2HF51
     P10OQt4 ^C2019 06 12u#XEmZPXy)wUMY0IAWW\m*d4Ite2Iw5xUmC'MZV1[]jF-e#dGJHe695
     P10OQt4 ^C2019 06 12^q9I]=!r;V@92!fl\wWqZH=g3t+5D-T)$n,b1-4=T?O0`ul]ScqU695
     P10OQt4 ^C2019 06 12'_BUD1Rf]04CrEQaKHoexplanationER%_'KBZ59ipR2KwC%)c9w695

Station data:
(695) Kitt Peak  (N31.958398 W111.594670)  US/Arizona.
(F51) Pan-STARRS 1, Haleakala  (N20.707235 W156.255910)  US/Hawaii.
   Observers N. Primak, A. Schultz, S. Watters, J. Thiel, T. Goggia. Measurer
   PS1 Science Consortium. 1.8-m Ritchey-Chrétien + CCD.

Orbital elements:  P10OQt4
   Perihelion 2020 Jan 18.569061 +/- 0.244 TT = 13:39:26 (JD 2458867.069061)
Epoch 2019 Jun 12.0 TT = JDT 2458646.5   Earth MOID: 0.9141   AutoNEOCP
M 310.47250207 +/- 0.11             (J2000 ecliptic)
n   0.22454417 +/- 0.000322         Peri.  196.92011 +/- 0.040
a   2.68082328 +/- 0.00256          Node   113.59222 +/- 0.026
e   0.2844197 +/- 0.000765          Incl.   36.58812 +/- 0.011
P   4.39                   H 18.5   G  0.15   U  7.4  
q 1.91834432 +/- 0.000452    Q 3.44330224 +/- 0.00533
From 14 observations 2019 May 22-June 12; mean residual 0".10
Residuals in arcseconds: 
190522 F51  .08-  .09-    190608 F51  .18-  .01-    190609 F51  .13+  .10-    
190522 F51  .03+  .03+    190608 F51  .03-  .10-    190612 695  .08+  .05-    
190522 F51  .14-  .10-    190609 F51  .01-  .03-    190612 695  .13-  .03+    
190522 F51  .19+  .16+    190609 F51  .04-  .05-    190612 695  .04+  .03+    
190608 F51  .14+  .14+    190609 F51  .00   .14+    

Ephemerides (geocentric):
Date (UTC) HH   RA              Dec         delta   r     elong  mag " sig PA
---- -- -- --  -------------   -----------  ------ ------ -----  --- ---- ---
2019 06 15 19  15 12 28.390   +30 39 29.80  1.7039 2.3374 116.2 22.6 .530 137
2019 06 15 20  15 12 26.618   +30 38 49.00  1.7040 2.3372 116.2 22.6 .535 137
2019 06 15 21  15 12 24.848   +30 38 08.16  1.7041 2.3371 116.2 22.6 .540 137
2019 06 15 22  15 12 23.082   +30 37 27.29  1.7042 2.3370 116.1 22.6 .545 137
2019 06 15 23  15 12 21.318   +30 36 46.38  1.7043 2.3369 116.1 22.6 .550 137
2019 06 16 00  15 12 19.557   +30 36 05.43  1.7044 2.3367 116.1 22.6 .555 137
2019 06 16 01  15 12 17.799   +30 35 24.45  1.7044 2.3366 116.1 22.6 .560 137
2019 06 16 02  15 12 16.044   +30 34 43.43  1.7045 2.3365 116.1 22.6 .565 137
2019 06 16 03  15 12 14.292   +30 34 02.37  1.7046 2.3363 116.1 22.6 .571 137
2019 06 16 04  15 12 12.543   +30 33 21.28  1.7047 2.3362 116.0 22.6 .576 137
2019 06 16 05  15 12 10.796   +30 32 40.15  1.7048 2.3361 116.0 22.6 .581 137
2019 06 16 06  15 12 09.053   +30 31 58.98  1.7049 2.3360 116.0 22.6 .586 137
2019 06 16 07  15 12 07.312   +30 31 17.78  1.7050 2.3358 116.0 22.6 .591 137
2019 06 16 08  15 12 05.575   +30 30 36.54  1.7051 2.3357 116.0 22.6 .596 137
2019 06 16 09  15 12 03.840   +30 29 55.27  1.7052 2.3356 115.9 22.6 .601 137
2019 06 16 10  15 12 02.108   +30 29 13.95  1.7053 2.3355 115.9 22.6 .607 137
2019 06 16 11  15 12 00.379   +30 28 32.60  1.7054 2.3353 115.9 22.6 .612 137
2019 06 16 12  15 11 58.653   +30 27 51.22  1.7054 2.3352 115.9 22.6 .617 137
2019 06 16 13  15 11 56.930   +30 27 09.80  1.7055 2.3351 115.9 22.6 .622 136
2019 06 16 14  15 11 55.210   +30 26 28.34  1.7056 2.3349 115.8 22.6 .628 136
2019 06 16 15  15 11 53.492   +30 25 46.85  1.7057 2.3348 115.8 22.6 .633 136
2019 06 16 16  15 11 51.778   +30 25 05.32  1.7058 2.3347 115.8 22.6 .638 136
2019 06 16 17  15 11 50.067   +30 24 23.75  1.7059 2.3346 115.8 22.6 .643 136
2019 06 16 18  15 11 48.358   +30 23 42.15  1.7060 2.3344 115.8 22.6 .649 136
2019 06 16 19  15 11 46.652   +30 23 00.51  1.7061 2.3343 115.8 22.6 .654 136
2019 06 16 20  15 11 44.950   +30 22 18.84  1.7062 2.3342 115.7 22.6 .659 136
2019 06 16 21  15 11 43.250   +30 21 37.13  1.7063 2.3340 115.7 22.6 .665 136
2019 06 16 22  15 11 41.553   +30 20 55.38  1.7064 2.3339 115.7 22.6 .670 136
2019 06 16 23  15 11 39.859   +30 20 13.60  1.7065 2.3338 115.7 22.6 .675 136
2019 06 17 00  15 11 38.168   +30 19 31.78  1.7066 2.3337 115.7 22.6 .681 136
2019 06 17 01  15 11 36.480   +30 18 49.93  1.7067 2.3335 115.6 22.6 .686 136
2019 06 17 02  15 11 34.795   +30 18 08.04  1.7068 2.3334 115.6 22.6 .692 136
2019 06 17 03  15 11 33.112   +30 17 26.12  1.7068 2.3333 115.6 22.6 .697 136
2019 06 17 04  15 11 31.433   +30 16 44.15  1.7069 2.3332 115.6 22.6 .702 136
2019 06 17 05  15 11 29.757   +30 16 02.16  1.7070 2.3330 115.6 22.6 .708 136
2019 06 17 06  15 11 28.083   +30 15 20.13  1.7071 2.3329 115.6 22.6 .713 136
2019 06 17 07  15 11 26.413   +30 14 38.06  1.7072 2.3328 115.5 22.6 .719 136
2019 06 17 08  15 11 24.745   +30 13 55.96  1.7073 2.3326 115.5 22.6 .724 136
2019 06 17 09  15 11 23.081   +30 13 13.82  1.7074 2.3325 115.5 22.6 .730 136
2019 06 17 10  15 11 21.419   +30 12 31.64  1.7075 2.3324 115.5 22.6 .735 136
2019 06 17 11  15 11 19.760   +30 11 49.43  1.7076 2.3323 115.5 22.6 .741 136
2019 06 17 12  15 11 18.104   +30 11 07.19  1.7077 2.3321 115.4 22.6 .746 136
2019 06 17 13  15 11 16.452   +30 10 24.91  1.7078 2.3320 115.4 22.6 .752 136
2019 06 17 14  15 11 14.802   +30 09 42.59  1.7079 2.3319 115.4 22.6 .757 136
2019 06 17 15  15 11 13.155   +30 09 00.24  1.7080 2.3318 115.4 22.6 .763 136
2019 06 17 16  15 11 11.511   +30 08 17.86  1.7081 2.3316 115.4 22.6 .769 136
2019 06 17 17  15 11 09.870   +30 07 35.43  1.7082 2.3315 115.3 22.6 .774 136
2019 06 17 18  15 11 08.232   +30 06 52.98  1.7083 2.3314 115.3 22.6 .780 136